QPF
0.11 0.12 0.08 0.05 0.04 0.03 0.02 0.02 0.02 0.02 0.03 0.05 0.06 0.06 0.07 0.06 0.04 0.05 0.05 0.05 0.05 0.03 0.03 0.02 0.01 0.01 0.01 0.01 0.01 0.01 0.01 0.00 0.01 0.01 0.01 0.01 0.02 0.03 0.03 0.04 0.05 0.07 0.09
0.12 0.15 0.11 0.07 0.05 0.05 0.04 0.03 0.03 0.03 0.03 0.03 0.03 0.05 0.09 0.10 0.07 0.04 0.04 0.05 0.05 0.05 0.04 0.02 0.01 0.01 0.01 0.01 0.02 0.02 0.01 0.01 0.01 0.01 0.02 0.02 0.03 0.03 0.03 0.03 0.04 0.05 0.07
0.07 0.12 0.14 0.12 0.08 0.05 0.04 0.04 0.03 0.02 0.02 0.02 0.02 0.04 0.07 0.08 0.08 0.05 0.04 0.05 0.04 0.05 0.03 0.02 0.02 0.01 0.01 0.01 0.02 0.03 0.03 0.01 0.01 0.01 0.01 0.02 0.03 0.03 0.04 0.03 0.04 0.05 0.06
0.04 0.07 0.12 0.12 0.09 0.06 0.04 0.04 0.03 0.02 0.02 0.01 0.01 0.02 0.03 0.04 0.05 0.05 0.03 0.03 0.02 0.02 0.02 0.01 0.01 0.02 0.02 0.01 0.01 0.02 0.02 0.01 0.01 0.01 0.01 0.01 0.01 0.02 0.03 0.04 0.05 0.05 0.04
0.03 0.04 0.07 0.08 0.06 0.05 0.03 0.03 0.03 0.03 0.03 0.02 0.01 0.01 0.01 0.02 0.03 0.04 0.03 0.02 0.02 0.02 0.02 0.02 0.02 0.01 0.01 0.01 0.01 0.00 0.01 0.01 0.01 0.01 0.01 0.00 0.01 0.02 0.02 0.03 0.06 0.06 0.05
0.03 0.04 0.05 0.05 0.03 0.03 0.03 0.04 0.05 0.06 0.06 0.04 0.03 0.02 0.03 0.03 0.03 0.05 0.04 0.05 0.04 0.03 0.03 0.02 0.02 0.01 0.01 0.01 0.01 0.01 0.00 0.01 0.01 0.01 0.01 0.01 0.01 0.01 0.02 0.02 0.03 0.05 0.07
0.03 0.04 0.03 0.03 0.02 0.02 0.02 0.04 0.09 0.10 0.09 0.07 0.05 0.04 0.03 0.03 0.03 0.03 0.04 0.05 0.04 0.04 0.03 0.02 0.02 0.01 0.01 0.01 0.01 0.01 0.01 0.01 0.00 0.01 0.01 0.01 0.01 0.01 0.01 0.02 0.02 0.03 0.04
0.02 0.04 0.03 0.02 0.02 0.01 0.01 0.02 0.04 0.09 0.10 0.08 0.05 0.04 0.04 0.03 0.03 0.03 0.03 0.04 0.03 0.03 0.02 0.02 0.01 0.01 0.01 0.01 0.01 0.01 0.01 0.01 0.01 0.01 0.01 0.01 0.01 0.01 0.01 0.02 0.03 0.02 0.02
0.01 0.03 0.04 0.01 0.01 0.01 0.01 0.01 0.01 0.03 0.05 0.07 0.07 0.05 0.03 0.03 0.03 0.03 0.03 0.03 0.03 0.03 0.03 0.02 0.01 0.01 0.01 0.01 0.01 0.01 0.01 0.01 0.01 0.01 0.01 0.01 0.01 0.01 0.01 0.02 0.03 0.02 0.01
0.01 0.02 0.04 0.01 0.01 0.02 0.02 0.01 0.01 0.02 0.03 0.04 0.06 0.06 0.04 0.03 0.03 0.03 0.03 0.04 0.03 0.03 0.04 0.04 0.03 0.01 0.01 0.01 0.01 0.01 0.01 0.01 0.01 0.01 0.01 0.01 0.01 0.01 0.01 0.01 0.02 0.01 0.01
0.01 0.02 0.04 0.02 0.01 0.02 0.02 0.02 0.02 0.03 0.03 0.05 0.05 0.05 0.05 0.04 0.03 0.02 0.03 0.04 0.04 0.04 0.03 0.04 0.03 0.02 0.02 0.01 0.01 0.01 0.00 0.00 0.00 0.01 0.01 0.01 0.01 0.01 0.01 0.01 0.02 0.01 0.01
0.01 0.02 0.04 0.06 0.03 0.02 0.02 0.02 0.02 0.03 0.04 0.05 0.06 0.06 0.06 0.06 0.04 0.03 0.04 0.05 0.06 0.05 0.04 0.03 0.03 0.03 0.02 0.02 0.01 0.01 0.01 0.01 0.01 0.01 0.01 0.01 0.01 0.01 0.01 0.02 0.02 0.01 0.01
0.01 0.02 0.03 0.07 0.06 0.04 0.03 0.02 0.02 0.01 0.02 0.04 0.05 0.06 0.06 0.08 0.08 0.07 0.06 0.05 0.06 0.07 0.07 0.04 0.03 0.03 0.03 0.03 0.02 0.02 0.02 0.02 0.02 0.02 0.02 0.02 0.01 0.01 0.02 0.02 0.01 0.01 0.01
0.02 0.02 0.03 0.04 0.05 0.06 0.05 0.04 0.03 0.02 0.03 0.05 0.07 0.06 0.06 0.06 0.05 0.06 0.07 0.07 0.05 0.04 0.05 0.05 0.03 0.02 0.02 0.02 0.02 0.02 0.02 0.02 0.01 0.02 0.02 0.02 0.03 0.03 0.03 0.02 0.02 0.02 0.02
0.01 0.02 0.03 0.03 0.03 0.04 0.07 0.07 0.04 0.03 0.03 0.03 0.03 0.03 0.04 0.04 0.04 0.04 0.03 0.04 0.04 0.04 0.03 0.03 0.02 0.02 0.01 0.01 0.02 0.02 0.02 0.01 0.01 0.01 0.02 0.02 0.03 0.03 0.03 0.03 0.02 0.02 0.02
0.01 0.01 0.02 0.03 0.03 0.03 0.05 0.08 0.06 0.03 0.03 0.03 0.02 0.03 0.04 0.04 0.04 0.04 0.03 0.02 0.02 0.03 0.03 0.03 0.03 0.02 0.01 0.01 0.01 0.01 0.01 0.01 0.01 0.01 0.01 0.01 0.02 0.02 0.02 0.03 0.03 0.03 0.03
0.01 0.01 0.02 0.02 0.02 0.02 0.02 0.04 0.06 0.05 0.04 0.03 0.03 0.03 0.04 0.04 0.03 0.03 0.02 0.02 0.01 0.02 0.02 0.02 0.02 0.02 0.01 0.02 0.02 0.01 0.01 0.01 0.01 0.01 0.01 0.01 0.01 0.02 0.02 0.03 0.02 0.02 0.02
0.01 0.01 0.02 0.02 0.02 0.02 0.02 0.02 0.03 0.05 0.06 0.04 0.04 0.04 0.03 0.04 0.04 0.03 0.02 0.01 0.01 0.01 0.01 0.01 0.01 0.01 0.01 0.01 0.02 0.02 0.01 0.01 0.01 0.01 0.01 0.01 0.01 0.01 0.01 0.02 0.01 0.02 0.02
0.01 0.01 0.02 0.02 0.02 0.02 0.02 0.02 0.02 0.03 0.08 0.08 0.04 0.05 0.04 0.04 0.04 0.03 0.02 0.02 0.02 0.01 0.02 0.02 0.01 0.01 0.01 0.01 0.01 0.01 0.01 0.01 0.01 0.01 0.01 0.02 0.01 0.02 0.02 0.01 0.01 0.02 0.03
0.01 0.01 0.02 0.03 0.02 0.02 0.02 0.02 0.02 0.03 0.07 0.09 0.06 0.04 0.06 0.06 0.05 0.04 0.03 0.02 0.02 0.02 0.02 0.02 0.02 0.01 0.01 0.01 0.01 0.01 0.01 0.00 0.00 0.01 0.01 0.01 0.01 0.01 0.02 0.01 0.01 0.01 0.02
0.01 0.02 0.02 0.02 0.03 0.02 0.01 0.01 0.02 0.01 0.03 0.05 0.07 0.06 0.04 0.05 0.06 0.05 0.05 0.04 0.03 0.02 0.03 0.03 0.02 0.02 0.01 0.01 0.01 0.01 0.01 0.01 0.01 0.01 0.01 0.01 0.02 0.01 0.02 0.02 0.02 0.01 0.01
0.01 0.02 0.02 0.02 0.01 0.01 0.01 0.01 0.01 0.01 0.02 0.02 0.03 0.05 0.05 0.04 0.04 0.04 0.04 0.04 0.04 0.03 0.03 0.03 0.03 0.03 0.02 0.02 0.02 0.02 0.02 0.02 0.02 0.01 0.01 0.02 0.02 0.02 0.02 0.02 0.01 0.01 0.02
0.01 0.02 0.03 0.03 0.03 0.02 0.01 0.01 0.01 0.01 0.01 0.02 0.03 0.02 0.03 0.03 0.04 0.04 0.03 0.03 0.03 0.03 0.03 0.03 0.03 0.02 0.02 0.02 0.02 0.02 0.02 0.03 0.03 0.02 0.02 0.03 0.03 0.03 0.03 0.02 0.02 0.02 0.01
0.01 0.01 0.03 0.04 0.04 0.04 0.02 0.01 0.01 0.00 0.01 0.01 0.03 0.03 0.03 0.03 0.03 0.04 0.03 0.03 0.02 0.02 0.02 0.02 0.02 0.02 0.02 0.02 0.02 0.02 0.02 0.03 0.03 0.02 0.02 0.03 0.04 0.04 0.03 0.03 0.02 0.02 0.01
0.01 0.01 0.02 0.03 0.04 0.06 0.04 0.02 0.02 0.01 0.01 0.01 0.01 0.02 0.03 0.03 0.03 0.03 0.03 0.03 0.02 0.02 0.02 0.02 0.02 0.02 0.01 0.02 0.02 0.01 0.01 0.01 0.02 0.02 0.02 0.02 0.02 0.02 0.02 0.02 0.02 0.02 0.02
0.00 0.00 0.01 0.02 0.03 0.05 0.05 0.05 0.04 0.03 0.02 0.01 0.02 0.01 0.01 0.02 0.02 0.02 0.03 0.03 0.04 0.04 0.04 0.03 0.03 0.02 0.02 0.02 0.02 0.02 0.02 0.02 0.02 0.02 0.01 0.01 0.01 0.02 0.02 0.03 0.03 0.03 0.02
MSLP
1016.28 1016.39 1016.45 1016.48 1016.48 1016.46 1016.45 1016.48 1016.55 1016.68 1016.84 1017.03 1017.20 1017.35 1017.42 1017.42 1017.32 1017.16 1016.94 1016.70 1016.48 1016.30 1016.19 1016.14 1016.14 1016.15 1016.14 1016.05 1015.84 1015.51 1015.04 1014.44 1013.78 1013.09 1012.43 1011.86 1011.41 1011.11 1010.96 1010.94 1011.04 1011.23 1011.48
1015.86 1016.04 1016.17 1016.21 1016.20 1016.15 1016.10 1016.10 1016.16 1016.31 1016.53 1016.80 1017.07 1017.30 1017.44 1017.47 1017.37 1017.16 1016.89 1016.59 1016.31 1016.10 1015.98 1015.96 1016.02 1016.11 1016.19 1016.20 1016.10 1015.87 1015.48 1014.97 1014.37 1013.73 1013.11 1012.54 1012.07 1011.71 1011.48 1011.36 1011.34 1011.41 1011.56
1015.29 1015.58 1015.78 1015.88 1015.89 1015.83 1015.76 1015.73 1015.78 1015.94 1016.20 1016.53 1016.87 1017.17 1017.36 1017.42 1017.33 1017.12 1016.80 1016.46 1016.14 1015.91 1015.78 1015.77 1015.86 1016.01 1016.16 1016.26 1016.25 1016.11 1015.83 1015.42 1014.92 1014.37 1013.82 1013.29 1012.83 1012.45 1012.15 1011.94 1011.80 1011.74 1011.76
1014.61 1015.01 1015.31 1015.49 1015.54 1015.50 1015.43 1015.38 1015.42 1015.57 1015.84 1016.20 1016.58 1016.92 1017.17 1017.26 1017.19 1016.97 1016.65 1016.29 1015.96 1015.71 1015.57 1015.57 1015.68 1015.86 1016.05 1016.21 1016.27 1016.23 1016.05 1015.76 1015.38 1014.95 1014.50 1014.05 1013.64 1013.26 1012.92 1012.63 1012.38 1012.19 1012.07
1013.85 1014.37 1014.79 1015.07 1015.18 1015.18 1015.11 1015.05 1015.07 1015.20 1015.45 1015.80 1016.20 1016.56 1016.82 1016.95 1016.90 1016.71 1016.40 1016.06 1015.73 1015.48 1015.35 1015.35 1015.46 1015.65 1015.86 1016.05 1016.16 1016.19 1016.11 1015.93 1015.68 1015.38 1015.06 1014.72 1014.37 1014.03 1013.68 1013.34 1013.01 1012.71 1012.46
1013.11 1013.73 1014.26 1014.63 1014.82 1014.86 1014.81 1014.74 1014.72 1014.82 1015.03 1015.35 1015.72 1016.07 1016.34 1016.47 1016.45 1016.29 1016.02 1015.71 1015.41 1015.18 1015.06 1015.06 1015.17 1015.35 1015.56 1015.76 1015.91 1015.99 1015.98 1015.91 1015.79 1015.62 1015.42 1015.20 1014.95 1014.67 1014.35 1013.99 1013.61 1013.23 1012.87
1012.45 1013.14 1013.76 1014.21 1014.47 1014.55 1014.51 1014.43 1014.38 1014.42 1014.58 1014.84 1015.15 1015.47 1015.72 1015.85 1015.85 1015.72 1015.50 1015.23 1014.97 1014.78 1014.68 1014.68 1014.78 1014.95 1015.14 1015.33 1015.49 1015.60 1015.65 1015.67 1015.64 1015.60 1015.53 1015.43 1015.28 1015.09 1014.82 1014.48 1014.09 1013.67 1013.25
1011.92 1012.65 1013.32 1013.82 1014.13 1014.24 1014.21 1014.11 1014.03 1014.02 1014.11 1014.29 1014.54 1014.79 1015.00 1015.12 1015.13 1015.03 1014.85 1014.63 1014.42 1014.26 1014.18 1014.19 1014.28 1014.43 1014.60 1014.76 1014.91 1015.03 1015.12 1015.20 1015.26 1015.32 1015.36 1015.38 1015.34 1015.24 1015.05 1014.77 1014.40 1013.98 1013.54
1011.53 1012.27 1012.95 1013.47 1013.79 1013.92 1013.89 1013.79 1013.67 1013.61 1013.63 1013.74 1013.91 1014.10 1014.25 1014.34 1014.34 1014.25 1014.10 1013.92 1013.75 1013.62 1013.57 1013.59 1013.66 1013.79 1013.93 1014.07 1014.20 1014.32 1014.43 1014.54 1014.66 1014.80 1014.94 1015.06 1015.13 1015.13 1015.03 1014.83 1014.52 1014.14 1013.72
1011.27 1011.98 1012.64 1013.14 1013.46 1013.58 1013.56 1013.44 1013.30 1013.20 1013.17 1013.22 1013.31 1013.43 1013.52 1013.56 1013.53 1013.44 1013.30 1013.14 1013.00 1012.90 1012.86 1012.88 1012.95 1013.05 1013.16 1013.27 1013.38 1013.48 1013.60 1013.74 1013.91 1014.10 1014.31 1014.52 1014.68 1014.79 1014.79 1014.68 1014.46 1014.16 1013.78
1011.10 1011.76 1012.36 1012.83 1013.12 1013.23 1013.20 1013.08 1012.94 1012.82 1012.76 1012.75 1012.79 1012.84 1012.86 1012.85 1012.77 1012.65 1012.50 1012.34 1012.20 1012.11 1012.08 1012.09 1012.15 1012.23 1012.32 1012.41 1012.50 1012.60 1012.71 1012.86 1013.05 1013.28 1013.55 1013.82 1014.08 1014.27 1014.37 1014.37 1014.25 1014.03 1013.73
1010.97 1011.57 1012.11 1012.52 1012.76 1012.85 1012.82 1012.71 1012.58 1012.47 1012.40 1012.36 1012.35 1012.34 1012.30 1012.22 1012.08 1011.91 1011.73 1011.55 1011.40 1011.30 1011.26 1011.27 1011.31 1011.38 1011.45 1011.53 1011.60 1011.68 1011.79 1011.95 1012.15 1012.41 1012.72 1013.04 1013.36 1013.64 1013.83 1013.93 1013.91 1013.79 1013.57
1010.85 1011.39 1011.85 1012.20 1012.40 1012.47 1012.44 1012.36 1012.25 1012.16 1012.09 1012.04 1011.99 1011.92 1011.82 1011.67 1011.47 1011.24 1011.00 1010.78 1010.60 1010.48 1010.42 1010.42 1010.45 1010.50 1010.56 1010.63 1010.69 1010.76 1010.87 1011.02 1011.24 1011.52 1011.85 1012.21 1012.59 1012.93 1013.21 1013.40 1013.48 1013.45 1013.31
1010.72 1011.20 1011.60 1011.89 1012.05 1012.11 1012.09 1012.02 1011.95 1011.88 1011.82 1011.76 1011.68 1011.57 1011.40 1011.17 1010.89 1010.59 1010.30 1010.03 1009.81 1009.66 1009.57 1009.55 1009.57 1009.61 1009.66 1009.71 1009.76 1009.83 1009.93 1010.09 1010.30 1010.59 1010.94 1011.33 1011.75 1012.15 1012.50 1012.77 1012.94 1013.00 1012.95
1010.60 1011.03 1011.37 1011.60 1011.72 1011.77 1011.75 1011.71 1011.66 1011.62 1011.56 1011.49 1011.38 1011.21 1010.97 1010.67 1010.32 1009.95 1009.58 1009.26 1009.00 1008.81 1008.70 1008.65 1008.65 1008.68 1008.71 1008.76 1008.80 1008.86 1008.96 1009.10 1009.32 1009.61 1009.97 1010.39 1010.84 1011.28 1011.70 1012.04 1012.29 1012.43 1012.45
1010.51 1010.89 1011.17 1011.35 1011.44 1011.46 1011.45 1011.42 1011.38 1011.34 1011.28 1011.18 1011.02 1010.79 1010.48 1010.10 1009.68 1009.24 1008.82 1008.44 1008.14 1007.92 1007.78 1007.71 1007.69 1007.69 1007.71 1007.73 1007.76 1007.81 1007.89 1008.03 1008.24 1008.53 1008.90 1009.34 1009.81 1010.31 1010.77 1011.18 1011.51 1011.72 1011.82
1010.48 1010.81 1011.03 1011.15 1011.20 1011.20 1011.16 1011.12 1011.07 1011.01 1010.92 1010.77 1010.55 1010.25 1009.87 1009.42 1008.93 1008.43 1007.96 1007.54 1007.21 1006.96 1006.79 1006.70 1006.65 1006.63 1006.62 1006.62 1006.63 1006.65 1006.72 1006.84 1007.05 1007.33 1007.71 1008.16 1008.67 1009.20 1009.72 1010.20 1010.59 1010.87 1011.04
1010.52 1010.78 1010.93 1011.00 1010.99 1010.95 1010.88 1010.80 1010.71 1010.60 1010.45 1010.23 1009.94 1009.56 1009.11 1008.59 1008.04 1007.50 1006.99 1006.55 1006.19 1005.91 1005.72 1005.60 1005.52 1005.47 1005.43 1005.39 1005.37 1005.37 1005.41 1005.52 1005.72 1006.01 1006.39 1006.87 1007.41 1007.98 1008.56 1009.09 1009.55 1009.90 1010.13
1010.61 1010.78 1010.86 1010.85 1010.79 1010.69 1010.56 1010.43 1010.27 1010.09 1009.85 1009.55 1009.18 1008.72 1008.20 1007.62 1007.03 1006.45 1005.92 1005.46 1005.08 1004.78 1004.57 1004.41 1004.30 1004.20 1004.12 1004.05 1003.99 1003.96 1003.98 1004.08 1004.28 1004.57 1004.98 1005.48 1006.06 1006.68 1007.31 1007.90 1008.42 1008.84 1009.14
1010.71 1010.79 1010.78 1010.70 1010.56 1010.39 1010.20 1009.99 1009.75 1009.47 1009.15 1008.76 1008.29 1007.76 1007.17 1006.55 1005.92 1005.32 1004.77 1004.30 1003.90 1003.58 1003.33 1003.14 1002.98 1002.84 1002.71 1002.59 1002.50 1002.45 1002.46 1002.56 1002.76 1003.08 1003.51 1004.05 1004.68 1005.35 1006.03 1006.68 1007.26 1007.74 1008.10
1010.77 1010.75 1010.65 1010.49 1010.28 1010.04 1009.77 1009.48 1009.15 1008.78 1008.36 1007.88 1007.33 1006.73 1006.09 1005.43 1004.78 1004.16 1003.59 1003.09 1002.67 1002.32 1002.03 1001.78 1001.57 1001.37 1001.20 1001.05 1000.93 1000.86 1000.88 1000.99 1001.22 1001.58 1002.06 1002.64 1003.32 1004.04 1004.78 1005.49 1006.12 1006.66 1007.06
1010.76 1010.65 1010.47 1010.23 1009.96 1009.64 1009.30 1008.92 1008.50 1008.05 1007.54 1006.98 1006.36 1005.71 1005.02 1004.33 1003.65 1003.00 1002.41 1001.88 1001.42 1001.01 1000.66 1000.35 1000.08 999.83 999.61 999.42 999.29 999.23 999.27 999.42 999.70 1000.11 1000.65 1001.30 1002.03 1002.82 1003.61 1004.36 1005.04 1005.61 1006.06
1010.66 1010.47 1010.22 1009.92 1009.59 1009.21 1008.80 1008.35 1007.86 1007.32 1006.74 1006.11 1005.44 1004.74 1004.01 1003.29 1002.58 1001.90 1001.27 1000.68 1000.15 999.68 999.25 998.86 998.51 998.21 997.95 997.75 997.62 997.59 997.68 997.89 998.24 998.72 999.33 1000.05 1000.85 1001.68 1002.52 1003.31 1004.03 1004.63 1005.11
1010.48 1010.23 1009.93 1009.59 1009.21 1008.78 1008.32 1007.80 1007.25 1006.65 1006.01 1005.33 1004.62 1003.88 1003.12 1002.35 1001.60 1000.87 1000.17 999.50 998.88 998.31 997.78 997.31 996.89 996.53 996.24 996.04 995.94 995.96 996.12 996.42 996.86 997.43 998.12 998.91 999.77 1000.65 1001.52 1002.33 1003.07 1003.69 1004.20
1010.26 1009.98 1009.65 1009.28 1008.87 1008.40 1007.88 1007.33 1006.72 1006.08 1005.39 1004.67 1003.92 1003.13 1002.33 1001.52 1000.70 999.90 999.10 998.34 997.60 996.92 996.28 995.71 995.22 994.82 994.52 994.34 994.30 994.39 994.64 995.04 995.58 996.25 997.02 997.88 998.78 999.70 1000.59 1001.42 1002.16 1002.79 1003.30
1010.06 1009.76 1009.43 1009.04 1008.59 1008.09 1007.54 1006.94 1006.29 1005.60 1004.88 1004.12 1003.33 1002.50 1001.65 1000.77 999.87 998.96 998.06 997.17 996.31 995.50 994.75 994.10 993.55 993.12 992.83 992.70 992.73 992.92 993.28 993.79 994.44 995.20 996.05 996.96 997.89 998.82 999.71 1000.53 1001.26 1001.89 1002.41
Thickness
5724 5725 5725 5725 5722 5721 5720 5719 5717 5716 5714 5711 5708 5705 5703 5703 5702 5702 5702 5701 5700 5699 5698 5696 5694 5693 5691 5689 5688 5687 5685 5684 5684 5682 5680 5681 5682 5683 5683 5683 5684 5684 5685
5718 5720 5721 5720 5718 5717 5716 5715 5714 5713 5712 5710 5707 5704 5701 5699 5699 5698 5697 5696 5696 5695 5693 5691 5690 5688 5686 5684 5683 5681 5679 5678 5678 5675 5672 5669 5671 5674 5676 5676 5677 5677 5678
5716 5717 5717 5716 5715 5713 5713 5714 5712 5710 5709 5707 5704 5700 5696 5694 5692 5691 5691 5691 5691 5690 5689 5687 5686 5684 5682 5679 5678 5676 5674 5671 5671 5672 5668 5662 5660 5662 5667 5669 5670 5671 5671
5716 5715 5715 5713 5712 5712 5712 5711 5709 5707 5705 5703 5699 5695 5690 5687 5687 5687 5686 5687 5687 5686 5684 5683 5681 5679 5678 5675 5674 5673 5671 5668 5666 5666 5666 5665 5663 5658 5657 5661 5663 5665 5666
5713 5713 5713 5712 5712 5711 5709 5708 5706 5704 5701 5699 5696 5692 5688 5685 5684 5683 5682 5681 5681 5681 5680 5679 5677 5675 5673 5672 5670 5668 5667 5665 5663 5662 5661 5660 5659 5658 5654 5652 5653 5656 5659
5711 5710 5710 5708 5707 5707 5705 5703 5702 5699 5697 5695 5692 5688 5685 5682 5679 5678 5676 5676 5675 5675 5675 5674 5673 5671 5669 5667 5665 5664 5662 5661 5660 5659 5658 5657 5655 5653 5651 5648 5647 5648 5651
5707 5705 5703 5702 5702 5701 5700 5699 5697 5695 5693 5691 5688 5685 5682 5680 5677 5675 5673 5671 5670 5669 5669 5669 5668 5666 5665 5663 5661 5659 5657 5657 5655 5655 5654 5654 5654 5653 5650 5647 5644 5643 5645
5703 5702 5701 5699 5698 5697 5696 5695 5693 5691 5689 5686 5684 5682 5679 5677 5675 5673 5671 5668 5667 5666 5666 5665 5663 5662 5661 5659 5657 5655 5653 5652 5651 5651 5650 5649 5649 5649 5648 5646 5642 5639 5638
5700 5699 5698 5697 5695 5694 5692 5691 5689 5687 5684 5683 5681 5678 5675 5673 5672 5670 5668 5666 5664 5663 5662 5660 5658 5657 5655 5654 5652 5650 5649 5648 5647 5646 5645 5644 5644 5644 5645 5644 5643 5639 5634
5695 5695 5694 5694 5692 5691 5689 5688 5686 5683 5681 5679 5677 5675 5671 5670 5668 5666 5663 5662 5660 5659 5657 5655 5653 5652 5650 5649 5647 5646 5645 5643 5642 5641 5640 5639 5638 5639 5639 5639 5639 5638 5635
5693 5692 5691 5690 5689 5687 5685 5682 5680 5678 5676 5674 5672 5670 5667 5665 5663 5661 5659 5657 5656 5654 5652 5650 5648 5647 5646 5644 5642 5641 5640 5638 5637 5637 5635 5634 5634 5633 5633 5633 5633 5632 5631
5690 5689 5687 5685 5683 5681 5680 5677 5675 5673 5672 5670 5667 5665 5662 5660 5657 5655 5654 5652 5650 5649 5647 5645 5643 5642 5641 5639 5637 5635 5635 5633 5632 5631 5631 5629 5629 5628 5627 5627 5626 5626 5625
5684 5682 5680 5679 5677 5676 5674 5672 5670 5668 5666 5665 5661 5659 5656 5654 5651 5649 5648 5646 5645 5643 5641 5640 5638 5637 5636 5634 5632 5631 5630 5628 5627 5626 5625 5624 5624 5622 5622 5621 5620 5620 5620
5679 5676 5673 5672 5671 5670 5668 5666 5664 5663 5661 5658 5655 5653 5650 5649 5647 5644 5642 5640 5639 5637 5635 5634 5633 5631 5630 5628 5627 5626 5624 5623 5622 5622 5621 5620 5619 5618 5617 5616 5615 5614 5612
5673 5671 5669 5666 5664 5662 5660 5659 5658 5657 5655 5652 5649 5647 5646 5644 5642 5639 5637 5635 5633 5631 5629 5628 5626 5625 5624 5623 5621 5620 5619 5617 5616 5615 5615 5615 5615 5614 5613 5612 5610 5608 5605
5669 5667 5665 5662 5660 5658 5655 5652 5651 5650 5649 5646 5644 5642 5640 5638 5636 5633 5630 5628 5626 5624 5623 5621 5619 5618 5618 5618 5617 5615 5612 5611 5609 5608 5608 5609 5608 5608 5607 5607 5605 5604 5601
5664 5661 5659 5657 5655 5653 5651 5647 5645 5643 5642 5640 5638 5636 5634 5632 5630 5628 5624 5621 5619 5618 5616 5614 5612 5611 5611 5611 5610 5609 5606 5604 5602 5602 5601 5602 5602 5600 5599 5599 5598 5597 5597
5658 5656 5654 5652 5650 5648 5645 5643 5640 5637 5635 5633 5632 5630 5627 5626 5624 5621 5618 5616 5613 5611 5609 5607 5606 5605 5604 5605 5604 5602 5599 5597 5596 5595 5595 5594 5593 5593 5592 5591 5589 5588 5588
5654 5652 5650 5647 5644 5641 5639 5636 5633 5630 5628 5627 5625 5624 5621 5619 5616 5613 5611 5609 5607 5604 5602 5601 5599 5597 5597 5597 5597 5595 5591 5589 5587 5587 5587 5586 5585 5585 5584 5582 5580 5579 5580
5648 5646 5644 5641 5637 5635 5632 5629 5625 5623 5622 5622 5620 5618 5615 5612 5609 5607 5605 5603 5600 5598 5596 5594 5592 5591 5590 5590 5589 5587 5584 5581 5579 5578 5578 5578 5577 5577 5575 5573 5571 5570 5571
5642 5639 5637 5633 5631 5629 5626 5621 5619 5617 5617 5616 5614 5611 5609 5606 5603 5600 5597 5595 5593 5590 5587 5585 5584 5583 5582 5581 5580 5579 5576 5573 5571 5569 5568 5568 5568 5568 5566 5565 5564 5564 5563
5634 5632 5628 5625 5624 5622 5619 5615 5612 5612 5611 5609 5607 5604 5601 5599 5596 5592 5589 5587 5584 5581 5578 5576 5574 5573 5573 5572 5571 5570 5568 5566 5563 5561 5560 5559 5559 5559 5557 5556 5556 5556 5554
5625 5623 5621 5618 5615 5613 5612 5608 5606 5605 5603 5601 5598 5596 5593 5590 5587 5584 5581 5578 5575 5572 5570 5567 5566 5564 5563 5563 5562 5561 5559 5557 5554 5553 5552 5551 5550 5549 5548 5547 5547 5546 5544
5615 5614 5612 5609 5606 5605 5604 5602 5600 5598 5596 5593 5590 5587 5584 5581 5577 5575 5573 5569 5567 5564 5562 5560 5558 5556 5555 5554 5553 5551 5549 5547 5545 5543 5542 5542 5540 5539 5539 5538 5537 5536 5536
5607 5605 5603 5600 5598 5597 5595 5594 5593 5590 5587 5584 5581 5578 5575 5572 5569 5566 5564 5562 5560 5559 5557 5555 5552 5549 5547 5547 5546 5544 5541 5539 5537 5534 5532 5530 5529 5528 5528 5528 5528 5528 5528
5598 5596 5594 5592 5591 5589 5587 5586 5585 5582 5578 5575 5572 5569 5566 5562 5559 5557 5554 5553 5552 5552 5552 5550 5547 5544 5543 5541 5538 5536 5534 5532 5529 5525 5522 5521 5520 5520 5520 5520 5519 5519 5520